Weather reports worldwide

Advertisment
Chassiron, France (7314): temperature & dewpoint: 01.08.2020 02:00:00 - 07.08.2020 02:00:00 (CEST)Chassiron, France (7314): wind speed & gusts: 01.08.2020 02:00:00 - 07.08.2020 02:00:00 (CEST)Chassiron, France (7314): wind direction: 01.08.2020 02:00:00 - 07.08.2020 02:00:00 (CEST)Chassiron, France (7314): reduced air pressure: 01.08.2020 02:00:00 - 07.08.2020 02:00:00 (CEST)Chassiron, France (7314): visibility: 01.08.2020 02:00:00 - 07.08.2020 02:00:00 (CEST)Chassiron, France (7314): precipitation: 01.08.2020 02:00:00 - 07.08.2020 02:00:00 (CEST)
Date & Time tt [°C] td [°C] ff [km/h] ff [kn] fx [km/h] fx [kn] dd ppp [hPa] vv [km] rr [mm]
07.08.2020 02:00:00 - - - - - - - - - -
07.08.2020 01:00:00 23,0 14,8 12 6 19 11 NE 1014,8 - 0,0
07.08.2020 00:00:00 22,0 15,4 10 5 18 10 NNE 1015,0 - 0,0
06.08.2020 23:00:00 22,6 14,9 12 6 18 10 N 1014,9 - 0,0
06.08.2020 22:00:00 21,8 15,6 13 7 20 11 NNW 1014,6 - 0,0
06.08.2020 21:00:00 23,1 14,4 18 10 23 12 NNW 1014,5 - 0,0
06.08.2020 20:00:00 23,4 15,2 16 8 22 12 NNW 1014,4 20 0,0
06.08.2020 19:00:00 23,7 14,9 18 10 23 13 NNW 1014,5 - 0,0
06.08.2020 18:00:00 24,0 16,3 16 9 22 12 NNW 1014,8 - 0,0
06.08.2020 17:00:00 24,6 16,8 14 8 23 12 NW 1015,3 - 0,0
06.08.2020 16:00:00 24,2 17,0 13 7 20 11 NW 1015,7 - 0,0
06.08.2020 15:00:00 25,8 14,3 9 5 14 7 NNW 1016,0 - 0,0
06.08.2020 14:00:00 26,0 14,8 6 4 12 6 N 1016,2 20 0,0
06.08.2020 13:00:00 26,0 14,1 8 4 14 8 NE 1016,4 - 0,0
06.08.2020 12:00:00 25,1 14,2 9 5 17 9 ENE 1016,6 - 0,0
06.08.2020 11:00:00 23,5 15,3 9 5 18 10 E 1016,6 20 0,0
06.08.2020 10:00:00 21,5 15,1 9 5 19 11 ENE 1016,6 - 0,0
06.08.2020 09:00:00 20,6 15,2 10 6 20 11 E 1016,4 - 0,0
06.08.2020 08:00:00 18,9 15,4 10 6 23 12 ENE 1016,1 - 0,0
06.08.2020 07:00:00 18,2 15,1 11 6 18 10 ENE 1015,9 - 0,0
06.08.2020 06:00:00 18,1 15,5 12 6 17 9 NE 1015,9 - 0,0
06.08.2020 05:00:00 17,7 15,5 8 5 16 9 NE 1015,9 - 0,0
06.08.2020 04:00:00 17,9 15,5 10 5 14 8 NE 1016,0 - 0,2
06.08.2020 03:00:00 18,2 15,8 9 5 14 8 NE 1016,2 - 0,0
06.08.2020 02:00:00 18,4 16,0 10 5 15 8 NNE 1016,3 20 0,0
06.08.2020 01:00:00 19,1 16,1 11 6 18 10 N 1016,2 - 0,0
06.08.2020 00:00:00 19,2 16,2 10 6 21 11 NNW 1016,2 - 0,0
05.08.2020 23:00:00 19,4 15,1 14 8 22 12 NNW 1016,2 - 0,0
05.08.2020 22:00:00 19,5 15,2 15 8 23 12 NNW 1015,9 - 0,0
05.08.2020 21:00:00 20,2 15,2 12 7 24 13 NNW 1015,5 - 0,0
05.08.2020 20:00:00 20,3 15,5 18 10 26 14 NNW 1015,5 25 0,0
05.08.2020 19:00:00 20,5 15,5 18 10 26 14 NW 1015,4 - 0,0
05.08.2020 18:00:00 20,8 14,7 16 9 31 17 NW 1015,7 - 0,0
05.08.2020 17:00:00 21,2 14,6 16 8 22 12 NW 1015,9 25 0,0
05.08.2020 16:00:00 21,9 16,4 11 6 18 10 NW 1016,3 - 0,0
05.08.2020 15:00:00 22,5 14,9 8 5 16 8 NW 1016,4 - 0,0
05.08.2020 14:00:00 22,3 12,5 8 4 13 7 NW 1016,6 - 0,0
05.08.2020 13:00:00 21,9 13,5 8 5 13 7 N 1016,9 - 0,0
05.08.2020 12:00:00 21,5 12,9 9 5 15 8 NE 1016,9 - 0,0
05.08.2020 11:00:00 20,5 13,9 10 5 16 9 NE 1016,8 25 0,0
05.08.2020 10:00:00 20,0 15,4 8 5 16 9 ENE 1017,0 - 0,0
05.08.2020 09:00:00 18,9 15,6 8 4 12 7 NE 1016,9 - 0,0
05.08.2020 08:00:00 17,2 15,5 6 3 9 5 ENE 1016,8 20 0,0
05.08.2020 07:00:00 16,1 14,5 4 2 7 4 ENE 1016,5 - 0,0
05.08.2020 06:00:00 16,4 14,8 3 1 5 3 NNE 1016,6 - 0,0
05.08.2020 05:00:00 16,2 14,2 3 2 7 4 NNE 1016,9 20 0,0
05.08.2020 04:00:00 16,5 14,3 5 3 7 4 ENE 1017,1 - 0,2
05.08.2020 03:00:00 16,8 14,4 5 3 6 4 NE 1017,5 - 0,0
05.08.2020 02:00:00 17,3 14,8 5 3 8 5 NNE 1017,8 20 0,0
05.08.2020 01:00:00 17,9 15,0 5 3 13 7 N 1018,0 - 0,0
05.08.2020 00:00:00 18,2 14,9 10 5 16 9 NNW 1018,3 - 0,0
04.08.2020 23:00:00 18,3 14,6 9 5 13 7 NW 1018,5 - 0,0
04.08.2020 22:00:00 18,6 14,5 9 5 14 7 NW 1018,4 - 0,0
04.08.2020 21:00:00 20,0 14,8 9 5 18 10 NW 1018,4 - 0,0
04.08.2020 20:00:00 21,0 14,6 10 5 16 9 WNW 1018,5 - 0,0
04.08.2020 19:00:00 20,9 14,5 9 5 14 7 W 1018,7 - 0,0
04.08.2020 18:00:00 21,1 14,7 8 5 14 8 W 1019,1 - 0,0
04.08.2020 17:00:00 21,1 14,5 12 7 16 9 W 1019,6 20 0,0
04.08.2020 16:00:00 21,1 14,5 10 5 15 8 W 1019,9 - 0,0
04.08.2020 15:00:00 20,9 13,8 10 5 15 8 W 1020,2 - 0,0
04.08.2020 14:00:00 20,1 12,1 9 5 15 8 W 1020,2 - 0,0
04.08.2020 13:00:00 20,2 10,6 8 4 12 6 WSW 1020,3 - 0,0
04.08.2020 12:00:00 20,4 10,8 4 2 12 6 WSW 1020,2 - 0,0
04.08.2020 11:00:00 20,1 12,3 8 4 13 7 NE 1020,2 - 0,0
04.08.2020 10:00:00 19,3 11,6 7 4 12 7 ENE 1020,2 - 0,0
04.08.2020 09:00:00 18,6 11,9 6 3 11 6 NE 1019,9 - 0,0
04.08.2020 08:00:00 17,0 10,8 7 4 14 8 ENE 1019,6 20 0,0
04.08.2020 07:00:00 16,0 10,5 10 6 16 9 NE 1019,4 - 0,0
04.08.2020 06:00:00 16,0 12,2 8 4 14 7 NE 1019,1 - 0,0
04.08.2020 05:00:00 15,8 12,7 10 5 13 7 NNE 1019,3 20 0,0
04.08.2020 04:00:00 16,5 14,3 9 5 16 9 N 1019,3 - 0,0
04.08.2020 03:00:00 16,7 14,3 13 7 19 11 NNW 1019,4 - 0,0
04.08.2020 02:00:00 17,0 14,3 17 9 28 15 NNW 1019,5 20 0,0
04.08.2020 01:00:00 17,5 14,4 19 11 32 18 NW 1019,6 - 0,0
04.08.2020 00:00:00 17,8 13,9 22 12 35 19 NW 1019,2 - 0,0
03.08.2020 23:00:00 18,0 13,9 20 11 32 17 NW 1019,1 16 0,0
03.08.2020 22:00:00 18,2 13,9 23 12 32 17 NW 1018,6 - 0,0
03.08.2020 21:00:00 18,6 14,7 22 12 35 19 WNW 1018,1 - 0,0
03.08.2020 20:00:00 19,1 14,8 21 11 35 19 WNW 1018,0 - 0,0
03.08.2020 19:00:00 19,6 14,4 19 10 31 17 WNW 1018,1 - 0,0
03.08.2020 18:00:00 19,3 14,8 19 10 30 16 WNW 1018,3 - 0,0
03.08.2020 17:00:00 19,8 14,8 16 9 26 14 WNW 1018,4 20 0,0
03.08.2020 16:00:00 19,7 14,7 13 7 22 12 W 1018,7 - 0,0
03.08.2020 15:00:00 19,1 13,5 15 8 23 12 WNW 1019,2 - 0,0
03.08.2020 14:00:00 18,9 15,2 15 8 20 11 WNW 1019,4 20 0,0
03.08.2020 13:00:00 18,0 14,9 12 6 18 10 WNW 1019,2 - 0,0
03.08.2020 12:00:00 17,5 14,9 12 7 23 12 NW 1019,4 - 0,2
03.08.2020 11:00:00 16,6 14,2 16 9 26 14 NW 1019,4 12 0,4
03.08.2020 10:00:00 16,2 13,1 23 12 35 19 NNW 1019,3 - 1,6
03.08.2020 09:00:00 17,7 14,2 21 12 30 16 NNW 1018,9 - 0,0
03.08.2020 08:00:00 17,7 14,8 16 9 23 13 NNW 1018,5 - 0,0
03.08.2020 07:00:00 17,5 14,4 16 9 22 12 NNW 1018,4 - 0,0
03.08.2020 06:00:00 17,4 14,5 16 9 21 12 NNW 1018,5 - 0,0
03.08.2020 05:00:00 17,3 14,2 16 9 22 12 NW 1018,6 - 0,0
03.08.2020 04:00:00 17,4 14,7 16 9 25 14 NW 1018,7 - 0,0
03.08.2020 03:00:00 17,3 14,9 16 8 23 13 NW 1019,4 - 0,0
03.08.2020 02:00:00 17,4 14,7 16 9 27 15 NW 1019,6 20 0,0
03.08.2020 01:00:00 17,6 14,3 18 10 35 19 NW 1019,6 - 0,0
03.08.2020 00:00:00 17,8 14,1 24 13 38 20 NW 1019,9 - 0,0
02.08.2020 23:00:00 17,9 13,6 24 13 38 21 NW 1020,1 - 0,0
02.08.2020 22:00:00 18,2 13,5 24 13 46 25 NW 1019,9 - 0,0
02.08.2020 21:00:00 18,4 13,0 29 16 46 25 NW 1019,8 - 0,0
02.08.2020 20:00:00 18,6 11,9 29 15 39 21 NW 1019,8 - 0,0
02.08.2020 19:00:00 19,4 12,2 26 14 39 21 WNW 1019,8 - 0,0
02.08.2020 18:00:00 19,5 12,0 26 14 41 22 WNW 1020,4 - 0,0
02.08.2020 17:00:00 19,7 12,2 27 15 40 22 WNW 1020,5 - 0,0
02.08.2020 16:00:00 19,6 12,8 26 14 36 19 WNW 1020,8 - 0,0
02.08.2020 15:00:00 19,9 11,9 23 12 32 17 WNW 1021,2 - 0,0
02.08.2020 14:00:00 20,1 13,3 15 8 24 13 W 1021,4 22 0,0
02.08.2020 13:00:00 20,2 13,4 13 7 22 12 WNW 1021,7 - 0,0
02.08.2020 12:00:00 19,8 12,3 15 8 26 14 NNW 1021,7 - 0,0
02.08.2020 11:00:00 18,8 12,5 21 11 31 17 N 1021,6 14 0,0
02.08.2020 10:00:00 18,1 12,1 22 12 28 15 N 1021,4 - 0,0
02.08.2020 09:00:00 18,2 13,3 18 10 31 17 N 1021,2 - 0,0
02.08.2020 08:00:00 18,3 14,0 16 9 25 14 N 1020,9 12 0,0
02.08.2020 07:00:00 18,2 14,3 19 10 26 14 N 1020,6 - 0,0
02.08.2020 06:00:00 18,2 15,1 18 10 27 15 N 1020,5 - 0,0
02.08.2020 05:00:00 18,3 15,7 21 11 35 19 NW 1020,1 - 0,0
02.08.2020 04:00:00 18,5 15,0 25 14 36 19 NW 1020,1 - 0,0
02.08.2020 03:00:00 18,5 15,4 22 12 32 17 WNW 1020,6 - 0,0
02.08.2020 02:00:00 18,5 15,7 22 12 31 17 NW 1021,1 - 0,0
02.08.2020 01:00:00 18,5 15,6 19 11 29 15 WNW 1021,1 - 0,0
02.08.2020 00:00:00 18,6 15,5 21 11 32 17 NW 1021,2 - 0,0
01.08.2020 23:00:00 18,6 15,3 18 10 34 19 NW 1021,2 12 0,0
01.08.2020 22:00:00 18,8 15,5 23 12 35 19 WNW 1021,0 - 0,0
01.08.2020 21:00:00 19,4 15,5 24 13 33 18 WNW 1020,7 - 0,0
01.08.2020 20:00:00 19,9 15,7 20 11 30 16 NW 1020,5 15 0,0
01.08.2020 19:00:00 21,0 16,6 18 10 27 15 WNW 1020,5 - 0,0
01.08.2020 18:00:00 21,2 16,8 20 11 29 16 WNW 1020,8 - 0,0
01.08.2020 17:00:00 21,2 16,6 22 12 37 20 WNW 1020,6 - 0,0
01.08.2020 16:00:00 20,8 16,4 27 14 38 20 WNW 1020,4 - 0,0
01.08.2020 15:00:00 20,7 16,3 26 14 36 19 WNW 1020,1 - 0,0
01.08.2020 14:00:00 20,9 15,9 19 11 31 17 WNW 1020,4 20 0,0
01.08.2020 13:00:00 20,7 16,9 19 10 28 15 WNW 1020,4 - 0,0
01.08.2020 12:00:00 20,8 18,0 12 7 20 11 WNW 1020,4 - 0,0
01.08.2020 11:00:00 20,4 18,2 5 3 13 7 WNW 1020,0 - 0,0
01.08.2020 10:00:00 19,6 18,1 9 5 18 10 NW 1019,5 - 0,0
01.08.2020 09:00:00 19,7 18,2 5 3 8 5 NW 1019,2 - 0,0
01.08.2020 08:00:00 19,1 17,6 5 3 13 7 N 1019,0 - 0,0
01.08.2020 07:00:00 18,9 17,6 10 5 18 10 NNW 1018,9 - 0,0
01.08.2020 06:00:00 18,9 17,2 11 6 27 14 NW 1018,6 - 0,0
01.08.2020 05:00:00 18,9 17,4 18 10 29 15 NW 1018,6 - 0,0
01.08.2020 04:00:00 19,0 17,3 21 11 31 17 WNW 1018,6 - 0,0
01.08.2020 03:00:00 18,9 17,0 20 11 31 17 NW 1018,9 - 0,0
01.08.2020 02:00:00 18,7 16,8 18 10 35 19 WNW 1019,0 20 0,0

tt = temperature
td = dewpoint
ff = wind speed
fx = gusts
dd = wind direction
ppp = reduced air pressure
vv = visibility
rr = precipitation

Next stations